Wind_Speed
47 48 49 51 51 50 49 47 48 48 47 46 43 42 42 42 42 42 42 41 40 40 39 39 39 39 39 39 39 40 40 41 42 42 43 44 45 46 47 49 50 51 52
47 49 49 49 50 49 49 48 47 47 46 45 44 44 43 42 41 41 41 41 40 40 40 40 40 39 39 39 40 40 41 42 42 43 44 44 45 46 48 49 50 51 51
48 49 48 48 49 48 47 48 47 47 46 46 45 45 45 43 42 41 41 41 40 41 41 41 40 39 39 39 40 40 41 42 43 44 44 44 45 46 47 49 50 50 51
50 50 49 48 48 49 49 48 47 47 46 46 45 45 45 45 43 42 41 41 40 41 41 41 41 40 39 39 40 41 42 42 43 44 44 44 45 46 47 49 49 50 51
50 51 50 50 50 50 50 49 48 47 46 45 45 45 45 44 43 42 42 42 41 41 40 40 40 40 40 41 41 41 42 42 43 43 44 44 45 46 47 48 49 50 51
51 51 51 52 52 52 51 50 48 47 47 46 45 45 44 44 43 43 43 44 43 42 40 40 40 40 40 40 40 41 42 42 43 43 43 43 44 46 47 48 49 49 51
51 51 51 51 52 52 52 51 49 47 47 47 46 45 44 44 44 43 43 43 43 43 42 41 40 39 39 39 40 41 42 42 42 42 42 43 44 45 47 48 49 50 51
50 51 51 50 49 50 51 51 50 49 47 46 46 45 44 44 44 43 43 43 43 43 42 42 41 39 38 39 40 40 41 41 41 41 42 43 44 45 46 47 48 50 51
49 49 51 50 49 48 50 50 50 49 48 46 46 45 43 43 43 43 43 43 42 42 41 41 40 39 39 40 40 39 40 39 40 41 42 43 44 45 45 46 48 49 50
47 49 51 51 50 49 50 50 50 49 48 47 47 46 44 43 43 43 42 41 41 41 40 40 39 39 40 39 38 38 38 39 40 41 41 43 44 44 45 46 48 49 50
48 48 50 52 51 51 50 50 50 49 48 47 47 46 44 43 42 42 41 40 40 40 39 38 37 38 38 38 37 37 38 39 39 40 41 43 43 44 45 46 47 48 49
48 49 49 50 52 52 51 51 50 50 48 46 45 44 43 42 42 41 40 40 39 38 37 37 37 37 37 37 37 38 37 38 39 40 42 42 42 43 44 45 46 47 48
48 49 49 50 51 52 52 51 50 50 49 47 45 44 43 42 42 41 39 39 38 37 36 36 36 36 36 37 37 37 37 38 39 40 40 40 41 42 42 43 44 45 45
47 47 48 48 48 49 50 50 49 48 48 47 46 45 43 41 41 41 39 38 37 36 36 36 35 36 36 36 36 37 37 37 38 38 38 39 40 40 41 42 43 43 44
47 46 47 47 47 48 48 48 47 47 47 46 45 44 43 41 39 38 38 37 36 35 36 35 35 35 36 36 36 37 37 36 36 36 37 38 38 38 39 40 41 42 43
47 47 47 46 45 46 47 48 48 47 46 46 45 44 43 41 40 40 39 37 37 37 36 36 35 35 36 36 36 36 35 34 35 36 36 36 36 36 37 39 40 41 41
46 47 48 47 46 46 47 47 48 47 47 46 44 43 42 41 41 40 40 38 37 37 37 36 35 35 35 35 35 34 34 35 34 34 34 34 35 36 36 38 39 40 40
43 45 47 47 47 45 45 46 47 47 47 45 44 44 43 42 41 40 39 39 38 37 36 35 34 34 34 34 33 33 32 32 32 33 33 33 33 34 35 37 38 38 39
40 42 44 45 45 44 44 45 45 46 46 45 45 44 43 43 42 41 40 39 37 35 35 34 34 34 33 33 32 31 31 31 31 31 32 32 33 34 35 36 36 37 38
38 39 41 43 44 44 44 44 44 44 44 45 44 43 42 42 41 40 39 37 36 35 34 33 32 32 31 30 30 30 30 30 30 31 31 31 33 34 34 34 35 36 37
36 37 39 41 42 43 43 43 43 43 43 44 42 41 41 40 39 39 38 37 36 34 33 33 32 30 29 28 28 28 29 29 29 29 30 30 31 32 32 33 34 35 36
36 37 38 38 40 41 42 43 42 42 41 42 42 41 41 40 39 38 37 37 35 34 33 32 31 29 28 28 28 28 28 28 28 28 29 29 30 30 30 31 32 34 35
35 36 37 38 38 38 39 40 41 41 41 41 41 40 40 39 38 37 36 36 35 34 33 31 29 28 27 27 27 26 26 26 27 27 27 28 28 29 29 30 31 33 33
33 35 36 36 36 37 37 38 38 39 39 39 39 38 37 37 36 36 35 35 34 33 31 29 28 28 27 27 26 26 26 25 25 25 26 27 27 28 28 29 30 31 31
32 33 34 34 35 35 35 35 35 36 36 36 37 36 35 34 34 33 33 32 32 31 29 27 27 27 26 25 25 25 24 23 23 24 25 26 26 27 27 28 29 29 29
29 31 33 34 34 34 33 33 33 33 33 34 34 34 34 34 33 32 31 30 30 29 28 27 26 26 26 25 24 23 22 22 22 23 25 25 25 25 26 26 26 26 25
Wind_Direction
225 224 223 224 224 225 226 228 230 232 235 235 235 238 240 241 243 246 249 251 253 256 260 264 268 272 276 280 283 287 291 293 295 298 301 303 305 307 310 311 313 314 316
224 224 224 225 225 226 227 228 231 232 234 236 236 238 240 242 243 245 248 251 254 257 261 265 268 272 276 279 282 286 290 293 296 299 301 303 305 307 309 311 313 315 316
225 224 225 226 227 227 228 229 231 232 234 236 238 239 241 242 243 246 248 251 255 259 262 265 269 272 276 278 282 286 290 292 296 298 300 303 304 307 309 311 313 315 316
225 224 226 227 228 229 228 230 232 233 235 237 239 241 242 243 244 246 248 251 255 259 263 266 268 272 275 278 282 285 289 292 295 298 300 301 304 307 309 311 313 314 314
226 225 225 225 227 228 228 230 231 233 235 237 240 242 244 245 246 248 250 252 255 259 263 266 268 272 276 279 282 286 289 292 295 297 299 301 304 307 309 310 312 313 315
227 227 226 227 228 229 229 230 232 232 235 237 240 243 244 245 247 249 252 255 256 259 262 265 269 273 277 280 282 285 288 291 294 297 299 301 304 307 308 310 311 313 314
229 228 228 227 228 229 228 229 231 232 235 237 240 242 245 246 247 249 251 255 258 260 263 265 269 273 275 279 282 285 288 290 293 296 299 302 304 306 308 310 311 313 315
229 228 227 226 227 228 229 231 231 232 235 237 240 242 244 246 248 249 252 256 259 262 264 266 269 271 274 278 282 286 288 290 293 295 298 302 304 306 308 310 311 313 315
230 228 226 225 227 229 230 232 233 234 235 237 239 242 243 245 247 250 253 257 260 262 264 266 269 271 273 277 282 285 288 291 293 296 299 301 303 305 307 309 312 314 316
232 232 229 226 228 229 230 232 234 236 237 238 240 241 242 245 247 249 253 256 259 262 264 266 268 271 274 278 281 285 288 290 293 296 299 301 303 305 306 309 311 313 315
233 234 232 229 229 230 231 232 234 236 237 238 240 241 242 245 248 250 253 255 258 260 262 265 268 271 274 278 281 284 287 290 292 296 298 301 304 305 307 309 311 313 316
234 234 233 233 232 232 233 233 234 236 237 238 238 239 242 245 248 250 252 255 257 259 261 264 267 269 274 277 280 284 286 288 291 294 296 300 303 305 307 309 312 315 318
234 234 234 234 234 235 235 234 235 235 236 238 238 239 242 245 247 250 252 254 256 259 261 264 268 270 273 276 279 282 285 288 290 293 296 300 303 305 307 310 313 316 319
235 235 235 235 234 234 234 234 235 236 237 239 240 241 242 245 247 249 252 253 256 259 262 265 269 272 274 276 279 282 285 287 289 293 297 299 301 304 308 311 313 316 319
235 234 234 235 235 234 234 234 234 236 237 239 240 242 243 244 244 248 250 253 255 257 260 264 268 271 273 276 279 282 283 286 290 294 297 300 302 305 309 312 314 317 318
235 234 233 234 235 234 234 234 234 235 235 236 238 240 242 244 244 246 249 252 254 257 259 263 267 269 272 276 279 282 284 286 290 294 297 300 304 306 309 313 316 317 318
234 233 233 233 234 234 233 233 233 233 234 235 237 238 240 242 243 246 249 251 254 257 260 263 266 269 273 276 278 280 283 286 290 293 298 301 304 307 310 313 315 317 318
233 232 232 233 233 233 234 233 233 232 232 233 234 236 238 240 242 244 248 250 253 256 260 262 265 269 272 274 277 278 282 286 291 294 298 301 304 306 309 313 315 317 319
234 231 231 232 233 234 235 234 233 232 231 232 233 235 238 239 241 244 246 249 253 255 258 260 263 267 271 273 274 277 281 287 291 295 298 301 303 306 309 313 316 317 319
234 231 231 232 233 234 234 234 232 231 231 232 233 234 235 238 241 244 247 249 251 253 256 258 261 265 268 271 273 276 280 286 290 295 299 302 305 307 309 312 315 317 319
233 231 231 231 232 233 233 232 231 230 231 231 232 233 235 237 240 243 246 247 248 250 253 256 259 262 265 268 272 276 280 284 289 294 300 303 305 308 310 313 315 317 319
232 232 231 231 232 231 230 230 229 230 230 232 233 234 234 237 239 242 244 245 245 246 250 254 256 260 262 266 272 276 280 284 288 294 300 305 307 309 312 315 316 318 320
232 231 231 231 230 228 228 228 227 228 229 231 233 234 235 237 238 239 241 241 242 244 248 251 255 258 261 266 272 276 280 284 288 293 299 305 308 310 312 315 317 319 321
232 229 229 228 227 227 227 227 227 226 226 228 230 231 231 233 234 235 236 238 240 243 246 249 253 257 262 266 270 275 278 283 288 293 300 306 309 311 313 315 318 320 322
232 229 226 225 225 224 225 224 224 223 224 225 227 226 226 227 229 231 232 235 238 241 242 247 253 258 262 266 270 273 277 282 288 295 300 306 309 311 314 316 318 321 324
231 229 226 224 223 223 222 221 221 221 221 222 223 223 224 224 225 227 230 234 235 237 241 246 251 256 260 265 268 271 276 282 288 295 301 305 308 312 316 318 320 323 325
Height
5618 5625 5632 5640 5648 5655 5663 5669 5676 5682 5688 5694 5699 5704 5709 5714 5718 5722 5725 5728 5731 5733 5735 5736 5737 5736 5736 5735 5733 5731 5729 5726 5723 5720 5716 5711 5707 5702 5696 5690 5684 5677 5669
5610 5617 5625 5632 5640 5647 5655 5661 5667 5673 5679 5685 5690 5695 5700 5705 5709 5713 5716 5719 5722 5724 5726 5727 5728 5727 5727 5726 5724 5722 5720 5717 5714 5712 5708 5703 5698 5693 5687 5681 5675 5668 5660
5602 5609 5616 5623 5631 5638 5645 5652 5658 5664 5670 5675 5681 5686 5691 5696 5700 5704 5707 5710 5713 5715 5717 5718 5718 5718 5718 5717 5715 5714 5711 5708 5705 5702 5699 5694 5689 5684 5679 5672 5665 5659 5651
5593 5600 5607 5615 5622 5629 5636 5643 5649 5655 5661 5666 5672 5677 5682 5687 5691 5695 5698 5701 5704 5706 5707 5708 5709 5709 5709 5708 5706 5704 5702 5699 5696 5693 5689 5685 5680 5675 5670 5664 5657 5650 5643
5584 5591 5598 5605 5612 5620 5627 5633 5640 5645 5651 5657 5662 5668 5672 5677 5682 5685 5689 5691 5694 5696 5697 5699 5699 5700 5700 5699 5697 5695 5693 5690 5687 5683 5680 5676 5672 5666 5661 5655 5649 5642 5634
5575 5581 5588 5595 5602 5610 5617 5623 5630 5636 5642 5647 5653 5658 5663 5668 5672 5676 5679 5682 5684 5686 5688 5689 5689 5690 5690 5689 5687 5686 5683 5681 5678 5674 5671 5667 5662 5657 5652 5646 5640 5634 5627
5565 5571 5578 5585 5592 5599 5606 5612 5619 5626 5632 5637 5643 5648 5653 5658 5662 5666 5669 5672 5674 5676 5678 5679 5680 5680 5680 5679 5678 5676 5674 5671 5668 5665 5662 5658 5653 5648 5643 5637 5630 5623 5617
5554 5561 5568 5575 5582 5588 5595 5602 5609 5616 5622 5627 5633 5638 5643 5648 5652 5656 5658 5661 5664 5666 5668 5669 5670 5670 5670 5669 5667 5666 5664 5662 5659 5656 5653 5649 5644 5639 5633 5627 5621 5614 5607
5544 5550 5557 5564 5571 5578 5585 5591 5598 5605 5611 5617 5622 5628 5633 5638 5642 5645 5648 5651 5654 5657 5658 5659 5660 5660 5660 5659 5658 5656 5655 5652 5649 5647 5643 5639 5635 5630 5624 5618 5612 5605 5598
5533 5539 5546 5553 5560 5567 5575 5581 5588 5594 5601 5606 5612 5618 5623 5627 5631 5635 5638 5641 5644 5647 5648 5650 5651 5651 5650 5649 5648 5647 5645 5643 5640 5637 5634 5630 5626 5621 5615 5609 5603 5596 5589
5523 5529 5536 5543 5550 5557 5564 5571 5577 5584 5590 5596 5602 5607 5612 5617 5621 5625 5628 5631 5634 5636 5638 5640 5641 5641 5640 5640 5639 5638 5636 5634 5631 5628 5625 5621 5616 5611 5606 5600 5593 5587 5580
5512 5519 5525 5531 5538 5545 5552 5559 5566 5572 5578 5584 5590 5596 5601 5606 5610 5614 5618 5621 5623 5626 5628 5629 5630 5631 5631 5630 5629 5628 5627 5624 5622 5619 5616 5612 5607 5602 5597 5591 5584 5578 5570
5501 5508 5514 5520 5527 5534 5541 5548 5554 5560 5567 5574 5579 5585 5591 5596 5600 5604 5607 5610 5613 5615 5617 5619 5620 5621 5621 5620 5620 5619 5617 5615 5612 5609 5606 5602 5598 5593 5587 5582 5575 5569 5562
5490 5496 5503 5509 5515 5522 5529 5536 5543 5550 5556 5563 5569 5574 5580 5585 5590 5593 5596 5599 5602 5605 5607 5609 5610 5611 5611 5611 5610 5609 5607 5605 5603 5600 5597 5593 5589 5584 5579 5573 5567 5561 5554
5479 5485 5492 5498 5505 5511 5518 5525 5532 5539 5545 5552 5558 5564 5570 5575 5579 5583 5586 5589 5592 5595 5597 5598 5600 5600 5601 5601 5600 5599 5598 5596 5594 5591 5588 5584 5580 5575 5570 5565 5559 5553 5547
5467 5474 5481 5487 5494 5500 5507 5514 5520 5527 5534 5540 5547 5553 5559 5564 5568 5572 5576 5579 5582 5585 5587 5589 5590 5591 5591 5591 5591 5590 5588 5587 5585 5582 5579 5575 5571 5567 5562 5557 5552 5546 5539
5456 5462 5469 5476 5483 5489 5496 5503 5509 5516 5522 5529 5536 5542 5548 5553 5557 5562 5566 5569 5572 5574 5577 5579 5580 5581 5582 5581 5581 5580 5580 5578 5576 5573 5570 5567 5563 5559 5554 5549 5544 5538 5532
5444 5451 5458 5465 5472 5478 5485 5491 5498 5505 5512 5518 5525 5531 5536 5542 5547 5551 5555 5558 5561 5564 5566 5569 5570 5571 5572 5572 5572 5572 5571 5569 5567 5565 5562 5558 5555 5551 5546 5542 5537 5531 5525
5434 5440 5447 5454 5460 5467 5474 5480 5487 5494 5501 5507 5514 5520 5525 5530 5535 5540 5544 5548 5552 5554 5557 5559 5560 5561 5562 5563 5563 5563 5562 5561 5559 5557 5554 5551 5547 5543 5539 5534 5529 5523 5518
5424 5430 5436 5443 5450 5456 5463 5469 5476 5482 5489 5496 5502 5509 5514 5519 5525 5530 5534 5537 5541 5544 5547 5549 5551 5552 5553 5554 5554 5554 5554 5552 5551 5549 5546 5543 5539 5535 5531 5526 5522 5516 5511
5415 5420 5426 5432 5439 5445 5452 5458 5465 5471 5478 5485 5491 5497 5503 5509 5514 5519 5523 5527 5530 5534 5537 5539 5541 5543 5544 5545 5546 5546 5545 5544 5543 5541 5538 5535 5531 5528 5523 5519 5514 5509 5504
5406 5411 5416 5422 5428 5434 5441 5447 5453 5460 5467 5473 5479 5485 5491 5497 5503 5508 5512 5517 5520 5524 5528 5530 5532 5534 5536 5537 5537 5537 5537 5536 5535 5533 5531 5528 5524 5520 5516 5512 5507 5502 5497
5396 5401 5407 5413 5418 5424 5430 5437 5443 5450 5456 5462 5468 5474 5480 5486 5492 5497 5502 5506 5511 5515 5518 5521 5524 5526 5528 5529 5529 5529 5529 5529 5527 5526 5523 5521 5517 5514 5510 5505 5501 5496 5491
5387 5392 5398 5403 5409 5415 5421 5427 5433 5439 5446 5452 5458 5464 5470 5476 5482 5487 5492 5497 5501 5506 5509 5512 5515 5517 5519 5521 5521 5522 5522 5521 5520 5518 5516 5514 5511 5507 5503 5499 5495 5490 5485
5379 5384 5389 5395 5401 5407 5413 5418 5424 5430 5436 5443 5449 5455 5461 5467 5473 5478 5483 5488 5492 5497 5501 5504 5507 5509 5511 5513 5513 5514 5514 5514 5513 5512 5510 5507 5504 5501 5497 5493 5488 5484 5479
5371 5376 5381 5387 5393 5399 5405 5410 5416 5422 5428 5434 5440 5447 5453 5459 5464 5470 5475 5480 5484 5489 5493 5496 5499 5501 5503 5505 5506 5507 5507 5507 5506 5505 5503 5501 5498 5495 5491 5487 5483 5479 5475